EW6005 Weather Reports


time (UTC)temp
C
wind
direction
speed
KPH
gust
KPH
rain 1hr
cm
rain 24hr
cm
rain mn
cm
humidity
%
barometer
mb
20260506110621 24 0 0.0 3.2 0.00 0.00 0.00 92 994.7
20260506110604 24 0 0.0 1.6 0.00 0.00 0.00 92 994.6
20260506105621 24 0 0.0 0.0 0.00 0.00 0.00 92 994.4
20260506105121 24 0 0.0 4.8 0.00 0.00 0.00 92 994.3
20260506104621 24 0 1.6 4.8 0.00 0.00 0.00 92 994.2
20260506104122 25 0 1.6 4.8 0.00 0.00 0.00 92 994.2
20260506103618 25 0 1.6 8.0 0.00 0.00 0.00 92 994.1
20260506103117 25 0 3.2 8.0 0.00 0.00 0.00 92 994.0
20260506102618 25 0 1.6 6.4 0.00 0.00 0.00 92 994.0
20260506102349 25 0 1.6 6.4 0.00 0.00 0.00 92 994.0
20260506101617 25 0 3.2 12.9 0.00 0.00 0.00 92 994.1
20260506101116 25 0 3.2 12.9 0.00 0.00 0.00 92 994.0
20260506100617 25 0 1.6 9.7 0.00 0.00 0.00 92 994.1
20260506100118 25 0 3.2 8.0 0.00 0.00 0.00 92 994.1
20260506095618 25 0 3.2 9.7 0.00 0.00 0.00 92 994.1
20260506095339 25 0 1.6 9.7 0.00 0.00 0.00 92 994.0
20260506094618 25 0 1.6 6.4 0.00 0.00 0.00 92 993.9
20260506094532 24 360 1.6 6.4 0.00 0.00 0.00 92 1001.8
20260506094114 25 0 1.6 6.4 0.00 0.00 0.00 92 993.8
20260506094049 25 0 1.6 8.0 0.00 0.00 0.00 92 993.7
20260506093558 25 0 3.2 12.9 0.00 0.00 0.00 92 993.6
20260506092615 25 0 3.2 12.9 0.00 0.00 0.00 92 993.7
20260506092116 25 0 3.2 9.7 0.00 0.00 0.00 92 993.7
20260506091611 25 0 3.2 12.9 0.00 0.00 0.00 92 993.7
20260506091110 25 0 4.8 12.9 0.00 0.00 0.00 92 993.7
20260506090612 25 0 3.2 8.0 0.00 0.00 0.00 92 993.7
20260506090111 25 0 3.2 6.4 0.00 0.00 0.00 92 993.7
20260506085612 25 0 3.2 8.0 0.00 0.00 0.00 92 993.7
20260506085111 25 0 3.2 9.7 0.00 0.00 0.00 92 993.7
20260506084611 25 188 3.2 12.9 0.00 0.00 0.00 91 993.7
20260506084111 25 146 4.8 12.9 0.00 0.00 0.00 91 993.5
20260506083611 25 0 3.2 9.7 0.00 0.00 0.00 91 993.6
20260506083111 25 0 3.2 9.7 0.00 0.00 0.00 91 993.8
20260506082608 25 0 3.2 12.9 0.00 0.00 0.00 91 993.8
20260506082108 25 0 3.2 12.9 0.00 0.00 0.00 91 993.7
20260506081609 25 0 3.2 9.7 0.00 0.00 0.00 91 993.7
20260506081109 25 0 3.2 14.5 0.00 0.00 0.00 91 993.8
20260506080604 25 0 3.2 9.7 0.00 0.00 0.00 91 994.0
20260506080330 25 0 3.2 9.7 0.00 0.00 0.00 91 994.0
20260506073055 25 0 3.2 11.3 0.00 0.00 0.00 90 994.5
20260506072552 25 208 3.2 11.3 0.00 0.00 0.00 90 994.5
20260506072053 25 0 3.2 12.9 0.00 0.00 0.00 90 994.5
20260506071811 25 0 3.2 12.9 0.00 0.00 0.00 90 994.6
20260506071050 25 0 3.2 8.0 0.00 0.00 0.00 90 994.7
20260506070550 25 0 3.2 8.0 0.00 0.00 0.00 90 994.7
20260506062037 25 0 3.2 8.0 0.00 0.00 0.00 89 994.9
20260506061535 25 0 3.2 8.0 0.00 0.00 0.00 89 994.8
20260506061032 25 0 3.2 9.7 0.00 0.00 0.00 89 994.9
20260506060533 25 0 3.2 9.7 0.00 0.00 0.00 89 994.9
20260506051016 26 0 3.2 9.7 0.00 0.00 0.00 88 994.7
20260506050514 26 0 3.2 9.7 0.00 0.00 0.00 88 994.6
20260506045013 26 0 6.4 20.9 0.00 0.00 0.00 87 994.6
20260506044513 26 0 4.8 14.5 0.00 0.00 0.00 87 994.6
20260506044013 26 0 4.8 22.5 0.00 0.00 0.00 87 994.6
20260506043513 26 0 4.8 22.5 0.00 0.00 0.00 87 994.6
20260506043014 26 0 3.2 9.7 0.00 0.00 0.00 87 994.6
20260506042737 26 0 3.2 9.7 0.00 0.00 0.00 87 994.6
20260506042014 26 0 3.2 12.9 0.00 0.00 0.00 87 994.6
20260506041512 26 0 3.2 12.9 0.00 0.00 0.00 87 994.7
20260506041500 26 0 3.2 9.7 0.00 0.00 0.00 87 994.7
20260506040506 26 0 3.2 9.7 0.00 0.00 0.00 87 994.7
20260506040007 26 0 3.2 9.7 0.00 0.00 0.00 87 994.7
20260506035506 26 0 1.6 9.7 0.00 0.00 0.00 87 994.5
20260506035005 26 0 3.2 8.0 0.00 0.00 0.00 87 994.4
20260506034505 26 0 3.2 8.0 0.00 0.00 0.00 86 994.4
20260506034005 26 0 3.2 16.1 0.00 0.00 0.00 86 994.3
20260506033725 26 0 3.2 16.1 0.00 0.00 0.00 86 994.3
20260506033227 26 0 3.2 8.0 0.00 0.00 0.00 86 994.4
20260506032505 26 0 3.2 9.7 0.00 0.00 0.00 86 994.2
20260506032005 26 0 3.2 9.7 0.00 0.00 0.00 86 994.2
20260506031504 26 0 1.6 12.9 0.00 0.00 0.00 86 994.3
20260506031005 26 0 3.2 12.9 0.00 0.00 0.00 85 994.2
20260506030505 26 0 3.2 6.4 0.00 0.00 0.00 85 994.2
20260506030005 26 0 3.2 9.7 0.00 0.00 0.00 85 994.1
20260506025505 26 0 3.2 9.7 0.00 0.00 0.00 85 994.0
20260506025005 26 0 3.2 14.5 0.00 0.00 0.00 85 994.0
20260506024505 26 0 3.2 14.5 0.00 0.00 0.00 85 993.9
20260506024005 26 0 3.2 9.7 0.00 0.00 0.00 85 993.8
20260506023723 26 0 1.6 6.4 0.00 0.00 0.00 85 993.7
20260506023004 26 0 1.6 6.4 0.00 0.00 0.00 85 993.7
20260506022551 26 0 0.0 8.0 0.00 0.00 0.00 85 993.6
20260506021505 26 0 1.6 9.7 0.00 0.00 0.00 84 993.4
20260506021005 26 0 3.2 9.7 0.00 0.00 0.00 84 993.4
20260506020505 26 0 1.6 4.8 0.00 0.00 0.00 84 993.3
20260506020001 26 0 3.2 8.0 0.00 0.00 0.00 84 993.3
20260506015725 26 0 3.2 8.0 0.00 0.00 0.00 84 993.1
20260506015444 26 0 3.2 9.7 0.00 0.00 0.00 84 993.1
20260506014501 26 0 4.8 12.9 0.00 0.00 0.00 84 993.0
20260506014221 26 0 3.2 12.9 0.00 0.00 0.00 84 992.8
20260506013501 26 0 3.2 9.7 0.00 0.00 0.00 84 992.8
20260506013001 26 0 3.2 9.7 0.00 0.00 0.00 83 992.7
20260506012723 27 0 3.2 9.7 0.00 0.00 0.00 83 992.7
20260506012222 27 0 3.2 9.7 0.00 0.00 0.00 83 992.6
20260506011501 27 0 3.2 8.0 0.00 0.00 0.00 83 992.6
20260506010958 27 0 4.8 9.7 0.00 0.00 0.00 83 992.5
20260506010459 27 0 4.8 14.5 0.00 0.00 0.00 83 992.4
20260506005958 27 0 3.2 14.5 0.00 0.00 0.00 83 992.4
20260506005459 27 0 3.2 9.7 0.00 0.00 0.00 82 992.4
20260506004957 27 0 3.2 9.7 0.00 0.00 0.00 82 992.2
20260506004455 27 0 3.2 8.0 0.00 0.00 0.00 82 992.3
20260506003954 27 0 3.2 9.7 0.00 0.00 0.00 82 992.3
20260506003454 27 0 3.2 9.7 0.00 0.00 0.00 82 992.2
20260506002953 27 0 3.2 8.0 0.00 0.00 0.00 82 992.3
20260506002452 27 0 3.2 6.4 0.00 0.00 0.00 82 992.3
20260506001951 27 0 3.2 16.1 0.00 0.00 0.00 82 992.3
20260506001451 27 0 4.8 16.1 0.00 0.00 0.00 81 992.3
20260506001217 27 0 4.8 17.7 0.00 0.00 0.00 81 992.3
20260506000451 27 0 6.4 17.7 0.00 0.00 0.00 81 992.4
20260505235949 27 0 6.4 20.9 0.00 0.00 0.00 81 992.3
20260505235931 27 0 4.8 20.9 0.00 0.00 0.00 81 992.1
20260505234945 27 0 3.2 8.0 0.00 0.00 0.00 81 992.1
20260505234445 28 0 3.2 9.7 0.00 0.00 0.00 81 992.2
20260505233945 28 0 3.2 12.9 0.00 0.00 0.00 81 992.3
20260505233700 28 0 4.8 17.7 0.00 0.00 0.00 80 992.2
20260505232939 28 0 4.8 17.7 0.00 0.00 0.00 80 992.1
20260505232439 28 0 3.2 12.9 0.00 0.00 0.00 81 992.0
20260505231938 28 0 3.2 9.7 0.00 0.00 0.00 81 992.0
20260505231437 28 0 3.2 9.7 0.00 0.00 0.00 81 991.9
20260505231424 28 0 3.2 9.7 0.00 0.00 0.00 80 992.0
20260505230436 28 0 3.2 9.7 0.00 0.00 0.00 80 992.1
20260505225937 28 0 4.8 16.1 0.00 0.00 0.00 80 992.2
20260505225435 28 0 4.8 16.1 0.00 0.00 0.00 80 992.3
20260505224935 28 0 3.2 16.1 0.00 0.00 0.00 80 992.1
20260505224435 28 0 3.2 17.7 0.00 0.00 0.00 79 991.9
20260505223933 28 0 3.2 17.7 0.00 0.00 0.00 79 992.1
20260505223432 28 0 4.8 17.7 0.00 0.00 0.00 78 992.0
20260505222930 28 0 6.4 17.7 0.00 0.00 0.00 78 991.9
20260505222428 28 0 6.4 19.3 0.00 0.00 0.00 78 992.0
20260505222147 29 0 3.2 19.3 0.00 0.00 0.00 78 992.0
20260505221423 29 0 4.8 16.1 0.00 0.00 0.00 79 992.1
20260505220924 29 0 4.8 17.7 0.00 0.00 0.00 79 992.1
20260505220424 28 0 4.8 17.7 0.00 0.00 0.00 78 992.0
20260505220143 29 0 4.8 16.1 0.00 0.00 0.00 79 992.0
20260505215424 28 0 6.4 16.1 0.00 0.00 0.00 78 992.2
20260505214921 28 151 4.8 20.9 0.00 0.00 0.00 78 992.3
20260505214639 28 0 6.4 20.9 0.00 0.00 0.00 78 992.4
20260505213918 28 0 6.4 20.9 0.00 0.00 0.00 78 992.5
20260505213642 28 0 3.2 17.7 0.00 0.00 0.00 79 992.6
20260505212919 28 0 3.2 12.9 0.00 0.00 0.00 80 992.6
20260505212417 28 0 4.8 12.9 0.00 0.00 0.00 79 992.7
20260505211917 28 0 4.8 12.9 0.00 0.00 0.00 79 992.8
20260505211412 28 0 4.8 17.7 0.00 0.00 0.00 79 992.9
20260505210912 28 0 6.4 17.7 0.00 0.00 0.00 79 992.9
20260505210412 28 0 4.8 19.3 0.00 0.00 0.00 79 992.9
20260505205913 28 0 3.2 19.3 0.00 0.00 0.00 79 993.0
20260505205636 28 0 4.8 17.7 0.00 0.00 0.00 79 993.1
20260505204912 28 0 4.8 17.7 0.00 0.00 0.00 79 993.1
20260505204410 28 0 6.4 20.9 0.00 0.00 0.00 79 993.2
20260505203908 28 0 4.8 20.9 0.00 0.00 0.00 79 993.2
20260505203407 28 0 4.8 17.7 0.00 0.00 0.00 79 993.3
20260505202908 28 0 6.4 17.7 0.00 0.00 0.00 79 993.5
20260505202409 28 0 4.8 16.1 0.00 0.00 0.00 79 993.4
20260505202127 28 0 6.4 17.7 0.00 0.00 0.00 78 993.4
20260505201409 28 0 6.4 17.7 0.00 0.00 0.00 78 993.5
20260505200908 28 0 6.4 19.3 0.00 0.00 0.00 79 993.5
20260505200409 28 0 6.4 24.1 0.00 0.00 0.00 79 993.6
20260505200128 28 0 6.4 25.7 0.00 0.00 0.00 79 993.6
20260505195408 28 0 6.4 27.4 0.00 0.00 0.00 78 993.8
20260505195129 28 268 6.4 27.4 0.00 0.00 0.00 79 993.7
20260505194408 28 0 4.8 16.1 0.00 0.00 0.00 80 993.8
20260505193908 28 0 4.8 19.3 0.00 0.00 0.00 81 993.9
20260505193408 28 0 3.2 19.3 0.00 0.00 0.00 80 994.0
20260505192905 28 0 4.8 9.7 0.00 0.00 0.00 81 994.1
20260505192404 28 155 6.4 19.3 0.00 0.00 0.00 81 994.1
20260505191904 28 0 6.4 22.5 0.00 0.00 0.00 80 994.0
20260505191406 28 0 6.4 22.5 0.00 0.00 0.00 82 994.0
20260505190904 28 0 4.8 16.1 0.00 0.00 0.00 82 994.1
20260505190404 28 0 4.8 24.1 0.00 0.00 0.00 82 994.2
20260505190122 28 0 4.8 24.1 0.00 0.00 0.00 82 994.2
20260505185404 28 0 3.2 14.5 0.00 0.00 0.00 83 994.4
20260505184904 27 0 4.8 16.1 0.00 0.00 0.00 83 994.4
20260505184400 27 0 4.8 16.1 0.00 0.00 0.00 84 994.4
20260505183902 27 0 3.2 16.1 0.00 0.00 0.00 84 994.4
20260505183401 27 0 3.2 16.1 0.00 0.00 0.00 85 994.5
20260505182900 27 0 4.8 24.1 0.00 0.00 0.00 85 994.5
20260505182401 27 0 6.4 24.1 0.00 0.00 0.00 84 994.5
20260505181900 27 0 4.8 16.1 0.00 0.00 0.00 85 994.6
20260505181841 27 0 4.8 19.3 0.00 0.00 0.00 85 994.6
20260505180900 27 0 4.8 19.3 0.00 0.00 0.00 85 994.7
20260505180621 26 0 4.8 14.5 0.00 0.00 0.00 85 994.7
20260505180342 26 0 4.8 14.5 0.00 0.00 0.00 85 994.8
20260505175356 26 0 6.4 20.9 0.00 0.00 0.00 85 994.7
20260505175118 26 0 4.8 22.5 0.00 0.00 0.00 85 994.7
20260505174356 26 0 3.2 22.5 0.00 0.00 0.00 86 994.8
20260505173856 26 0 4.8 16.1 0.00 0.00 0.00 85 994.7
20260505173356 26 0 4.8 24.1 0.00 0.00 0.00 86 994.8
20260505172856 26 0 3.2 24.1 0.00 0.00 0.00 86 994.9
20260505172356 26 0 3.2 17.7 0.00 0.00 0.00 86 994.8
20260505171857 26 0 4.8 17.7 0.00 0.00 0.00 86 994.9
20260505171613 26 0 4.8 16.1 0.00 0.00 0.00 86 994.9
20260505170852 26 0 4.8 16.1 0.00 0.00 0.00 86 995.0
20260505170352 26 0 4.8 16.1 0.00 0.00 0.00 86 994.9
20260505170116 26 0 6.4 19.3 0.00 0.00 0.00 87 995.0
20260505165352 26 0 4.8 19.3 0.00 0.00 0.00 87 995.0
20260505164854 26 0 4.8 12.9 0.00 0.00 0.00 87 995.0
20260505164614 26 0 4.8 19.3 0.00 0.00 0.00 87 995.0
20260505163855 25 0 4.8 19.3 0.00 0.00 0.00 88 995.1
20260505163354 25 182 3.2 14.5 0.00 0.00 0.00 88 995.1
20260505162852 25 216 3.2 14.5 0.00 0.00 0.00 88 995.2
20260505162351 25 148 3.2 11.3 0.00 0.00 0.00 88 995.3
20260505162118 25 234 4.8 19.3 0.00 0.00 0.00 88 995.3
20260505161615 25 217 4.8 19.3 0.00 0.00 0.00 88 995.2
20260505161120 25 169 3.2 11.3 0.00 0.00 0.00 88 995.1
20260505160352 25 148 4.8 11.3 0.00 0.00 0.00 88 995.0
20260505153349 25 0 3.2 16.1 0.00 0.00 0.00 88 995.0
20260505152851 25 0 4.8 16.1 0.00 0.00 0.00 88 994.8
20260505152350 25 0 4.8 16.1 0.00 0.00 0.00 88 994.8
20260505151850 25 0 4.8 16.1 0.00 0.00 0.00 88 994.8
20260505151350 25 0 4.8 17.7 0.00 0.00 0.00 88 994.8
20260505150851 25 0 3.2 17.7 0.00 0.00 0.00 88 994.8
20260505150351 25 0 4.8 14.5 0.00 0.00 0.00 89 994.7
20260505140337 23 0 6.4 19.3 0.00 0.00 0.00 91 994.6
20260505124546 22 0 3.2 9.7 0.00 0.00 0.00 92 994.2
20260505124040 22 0 3.2 9.7 0.00 0.00 0.00 92 993.9
20260505123319 22 0 3.2 8.0 0.00 0.00 0.00 92 993.9
20260505122817 22 0 1.6 8.0 0.00 0.00 0.00 92 994.0
20260505122316 22 0 1.6 8.0 0.00 0.00 0.00 92 994.2
20260505121815 22 0 3.2 8.0 0.00 0.00 0.00 92 994.2
20260505121313 22 0 1.6 9.7 0.00 0.00 0.00 92 994.4
20260505120814 22 0 1.6 9.7 0.00 0.00 0.00 92 994.2
20260505120311 22 0 3.2 9.7 0.00 0.00 0.00 92 994.2
20260505120034 22 0 3.2 9.7 0.00 0.00 0.00 92 994.1
20260505115312 22 0 1.6 9.7 0.00 0.00 0.00 92 994.1
20260505114813 22 0 3.2 8.0 0.00 0.00 0.00 92 994.0
20260505114312 22 0 3.2 8.0 0.00 0.00 0.00 92 993.8
20260505113812 22 0 3.2 12.9 0.00 0.00 0.00 92 993.7
20260505113311 22 0 3.2 12.9 0.00 0.00 0.00 92 993.8
20260505112812 22 0 3.2 12.9 0.00 0.00 0.00 92 994.1
20260505112531 22 0 3.2 12.9 0.00 0.00 0.00 92 994.1
20260505112125 22 0 3.2 9.7 0.00 0.00 0.00 91 994.0